Regional Weather Roundup
Issued by NWS Grand Forks, ND

Home | Current Version | Previous Version | Text Only | Print | Product List | Glossary Off
Versions: 1 2 3 4 5 6 7 8 9 10 11 12 13 14 15 16 17 18 19 20 21 22 23 24 25 26 27 28 29 30 31 32 33 34 35 36 37 38 39 40 41 42 43 44 45 46 47 48 49 50

000
ASUS43 KFGF 021731
RWRFGF
PRAIRIE TO PINES  WEATHER ROUNDUP
NATIONAL WEATHER SERVICE EASTERN NORTH DAKOTA/GRAND FORKS ND
1200 PM CDT SUN AUG 02 2015

 **SATELLITE DATA USED TO AUGMENT SKY COVER AT AUTOMATED STATIONS**
 *****  WEATHER ACROSS EASTERN NORTH DAKOTA  *****

CITY           SKY/WX    TMP DP  RH WIND       PRES   REMARKS
GRAND FORKS    MOSUNNY   74  54  49 N13G23    29.81R
GRAND FRKS AFB MOSUNNY   72  55  54 NW12      29.83R
DEVILS LAKE    SUNNY     72  46  40 N17G23    29.88R
FARGO          MOSUNNY   76  58  53 N20G25    29.81R
WAHPETON ARPT  PTSUNNY   77  54  44 N16G24    29.81R
$$

 ***** WEATHER ACROSS CENTRAL AND WESTERN NORTH DAKOTA  *****

CITY           SKY/WX    TMP DP  RH WIND       PRES   REMARKS
BISMARCK       MOSUNNY   76  56  49 NW13G22   29.95S
MINOT          MOSUNNY   72  51  47 N12       29.94R
JAMESTOWN      PTSUNNY   71  58  63 N12       29.88R
MINOT AFB      SUNNY     74  51  43 N9        29.93R
GARRISON         N/A     72  56  57 N13G20    29.96R
WILLISTON      MOSUNNY   75  53  46 VRB7      30.01S
DICKINSON      SUNNY     74  53  48 N14       30.00S
HETTINGER      SUNNY     77  48  35 N16       30.01S
$$

 *****  OTHER AIRPORT OBSERVATIONS IN OUR AREA  *****

CITY           SKY/WX    TMP DP  RH WIND       PRES   REMARKS
WALHALLA       FAIR      72  45  37 MISG      29.84R
GRAFTON AIRPOR FAIR      72  52  49 NW17G24   29.83R
VALLEY CITY AR PTSUNNY   73  57  56 N16       29.86S
CANDO          FAIR      72  46  40 N16G23    29.90S
CAVALIER APRT  FAIR      72  46  40 NW17      29.83R
GWINNER        FAIR      75  57  53 N13G22    29.86R
SHEYENNE NWR     N/A     76  57  50 N10       29.95
ROLLA            N/A     68  46  45 N17G29    29.92S
 ***** THE ABOVE OBSERVATIONS ARE NON NWS ARE NOT QUALITY
       CONTROLLED AND MAY MIS-REPORT RAIN FOR SNOW...
$$

  *****  WEATHER ACROSS NORTHERN MINNESOTA  *****

CITY           SKY/WX    TMP DP  RH WIND       PRES   REMARKS
FLAG ISLAND    MOSUNNY   70  46  43 NW24      29.71S
WARROAD        MOSUNNY   72  48  43 NW16G24   29.75S
ROSEAU         SUNNY     72  48  43 NW16G23   29.76S
HALLOCK        MOSUNNY   73  43  33 NW15G21   29.80S
THF RVR FALLS  PTSUNNY   72  50  46 NW18G25   29.80R
BAUDETTE       MOSUNNY   70  51  51 NW16G25   29.73R
WASKISH        MOSUNNY   72  57  60 W14       29.74R
CROOKSTON      MOSUNNY   73  52  46 N15G25    29.81S
STEPHEN NDAWN    N/A     72  50  46 N15         N/A
GREENBUSH NDAW   N/A     72  45  37 NW13        N/A
$$
  *****  WEATHER ACROSS CENTRAL AND WEST MINNESOTA  *****

CITY           SKY/WX    TMP DP  RH WIND       PRES   REMARKS
FOSSTON        MOSUNNY   73  50  43 NW17      29.80R
BEMIDJI        PTSUNNY   72  54  52 NW21      29.76R
PARK RAPIDS    MOSUNNY   76  57  51 NW20G28   29.75R
ELBOW LAKE     FAIR      73  62  66 N15G23    29.79R
WADENA         MOSUNNY   75  59  57 NW15G24   29.76R
DETROIT LAKES  MOSUNNY   73  57  56 NW17G23   29.81R
MOORHEAD       SUNNY     73  59  60 N18       29.82R
FERGUS FALLS   MOSUNNY   75  61  60 N14G23    29.79R
MORRIS MN      SUNNY     77  63  61 NW17      29.78R
STAPLES        MOSUNNY   75  57  53 NW13      29.74R
$$
  *****  WEATHER ELSEWHERE ACROSS MINNESOTA  *****

CITY           SKY/WX    TMP DP  RH WIND       PRES   REMARKS
DULUTH         LGT RAIN  67  60  78 NW12      29.66R
INTRNTL FALLS  MOSUNNY   70  51  51 NW14G26   29.68R
ELY            MOSUNNY   70  52  52 NW8G18    29.66R
CLOQUET        PTSUNNY   72  57  60 NW13      29.67R
WHEATON        SUNNY     73  61  64 NW14      29.82R
BRAINERD       PTSUNNY   77  58  51 N15G22    29.71S
HIBBING        PTSUNNY   71  58  63 NW12      29.68S
ALEXANDRIA     SUNNY     77  61  57 NW14G23   29.77R
SAINT CLOUD    MOSUNNY   77  65  66 N10G17    29.70R
MINNEAPOLIS    MOSUNNY   83  65  54 W16G23    29.63R
$$

  *****  WEATHER ACROSS SOUTH DAKOTA  *****

CITY           SKY/WX    TMP DP  RH WIND       PRES   REMARKS
SIOUX FALLS    PTSUNNY   82  66  58 N10G17    29.81R
BROOKINGS      SUNNY     79  63  57 N17       29.85R
WATERTOWN      SUNNY     78  60  53 N21G26    29.84R
HURON          SUNNY     78  62  57 N16       29.85R
SISSETON         N/A     75  62  64 N16G26    29.81R
ABERDEEN       SUNNY     80  59  48 N14       29.86R
MITCHELL       SUNNY     80  67  64 N14       29.84R
PIERRE         SUNNY     83  57  41 NE14      29.89R
MOBRIDGE       SUNNY     79  57  46 N14G22    29.91S
RAPID CITY     MOSUNNY   77  53  43 N7        30.01S
$$

  *****  SOME WEATHER IN NEARBY STATES *****

CITY           SKY/WX    TMP DP  RH WIND       PRES   REMARKS
GLASGOW MT     SUNNY     76  49  38 NW7       30.04S
GREAT FALLS MT SUNNY     71  53  52 W9        30.10S
CHEYENNE WY    SUNNY     86  48  26 NE13      30.15S
SCOTTSBLUFF NE SUNNY     82  61  48 VRB3      30.02S
OMAHA NE       MOSUNNY   92  72  51 SW14      29.83F HX  99
DES MOINES IA  MOSUNNY   89  71  55 W22G28    29.80F HX  95
DAVENPORT IA   MOSUNNY   82  68  62 SW9G21    29.82F
CHICAGO IL     MOSUNNY   88  63  43 SW20G30   29.79F
EAU CLAIRE WI  PTSUNNY   80  67  64 SW12      29.58F
LA CROSSE WI   SUNNY     87  69  54 S13       29.62F HX  91
$$

  *****  SOME NATIONAL WEATHER *****

CITY           SKY/WX    TMP DP  RH WIND       PRES   REMARKS
LA GUARDIA NY  PTSUNNY   87  50  27 S9G17     29.91F
RALEIGH NC     PTSUNNY   85  59  41 NE7       29.99F
ATLANTA GA     MOSUNNY   87  63  44 E7        29.96F
NEW ORLEANS LA MOSUNNY   92  64  39 NE8       29.92R HX  93
OKLAHOMA CITY  CLOUDY    79  67  66 S10       30.00R
ALBUQUERQUE NM MOSUNNY   77  55  46 W6        30.19F
SALT LAKE CITY PTSUNNY   86  40  19 S5        30.00F
LOS ANGELES CA CLOUDY    72  65  78 S5        29.93S
BOISE ID       SUNNY     89  37  16 S10       29.93S
SEATTLE WA     PTSUNNY   71  54  54 W10       29.97S
$$

*** WEATHER ACROSS MANITOBA...SASKATCHEWAN AND ONTARIO ***
                ***ONTARIO***

CITY           SKY/WX    TMP DP  RH WIND       PRES   REMARKS
GERALDTON      PTSUNNY   68  50  52 W8G18     29.53F
THUNDER BAY    PTSUNNY   73  55  53 NW13G23   29.56S
SIOUX LOOKOUT  MOSUNNY   68  48  49 W15G24    29.62R
TORONTO        MOSUNNY   84  54  34 S14G23    29.81F
BIG TROUT LK   PTSUNNY   52  48  87 NW10      29.48R
PICKLE LAKE    LGT RAIN  57  48  72 W15G30    29.55R
DRYDEN         PTSUNNY   68  43  40 W21G26    29.64S
KENORA         PTSUNNY   68  43  40 NW13G24   29.69F
$$
                *** MANITOBA***

CITY           SKY/WX    TMP DP  RH WIND       PRES   REMARKS
BRANDON        MOSUNNY   73  46  38 NW23G32   29.89R
DAUPHIN        SUNNY     70  43  37 N21       29.84F
ISLAND LAKE    CLOUDY    54  48  82 NW13G20   29.60S
PILOT MOUND      N/A     68  45  42 NW16G22     N/A
THE PAS        MOSUNNY   64  45  48 NW20G30   29.81S
THOMPSON       CLOUDY    52  50  93 NW13      29.69S
WINNIPEG       MOSUNNY   70  46  43 NW22G35   29.78S
LYNN LAKE      CLOUDY    55  48  76 N15G26    29.81R
CHURCHILL      LGT RAIN  46  46 100 N23G31    29.62R FOG
GILLAM         LGT RAIN  48  46  93 N13G20    29.59  FOG
$$
                ***SASKATCHEWAN***

CITY           SKY/WX    TMP DP  RH WIND       PRES   REMARKS
ESTEVAN        MOSUNNY   72  52  49 NW15G25   29.98F
KINDERSLEY     PTSUNNY   70  52  52 CALM      30.06F
LLOYDMINSTER   MOSUNNY   70  50  49 W5        30.05F
PRINCE ALBERT  MOSUNNY   70  54  56 NW10      29.97F
REGINA         MOSUNNY   73  52  46 NW9G18    30.02S
YORKTON        SUNNY     70  46  43 NW20G29   29.94S
N. BATTLEFORD  SUNNY     68  52  56 NW7       30.06F
LA RONGE       MOSUNNY   68  39  34 NW16G24   29.94F
SASKATOON      MOSUNNY   70  50  49 W8        30.04F
SWIFT CURRENT  MOSUNNY   66  54  63 NW3       30.08S
$$
NOTE: THESE ARE AUTOMATED STATIONS WITH LIMITED QUALITY CONTROL
      "FAIR" INDICATES FEW OR NO CLOUDS BELOW 12,000 FEET WITH NO
      SIGNIFICANT WEATHER AND/OR OBSTRUCTIONS TO VISIBILITY.
      SKY/WX - SKY CONDITION AND SIGNIFICANT WEATHER.
      TMP - AIR TEMPERATURE.    DP   - DEWPOINT TEMPERATURE.
      RH  - RELATIVE HUMIDITY.  PRES - PRESSURE.
      HX  - HEAT INDEX.         WCI  - WIND CHILL INDEX.
$



USA.gov is the U.S. government's official web portal to all federal, state and local government web resources and services.